Location: Celiny
(50.3167°N, 19.9803°E)
Time: 02:31:54
(UTC+00:00)

Daily predictions for brighter satellites

Satellite Brightness Start Highest point End
(mag) Time Altitude Azimuth Time Altitude Azimuth Time Altitude Azimuth
Cosmos 1626 3.9 00:02:18 17° W 00:03:47 21° WNW 00:06:38 10° NNW
IDEFIX/ARIANE 42P 4.3 00:00:02 10° NE 00:04:19 25° E 00:08:35 10° SE
Cosmos 1867 4.3 00:05:01 15° WSW 00:09:28 51° NW 00:14:50 10° NE
Gblst 52 Del rocket 4.3 00:03:35 10° W 00:09:36 79° N 00:15:09 10° E
Cosmos 2298 Rocket 4.4 00:07:41 23° SW 00:10:57 57° WNW 00:16:13 10° NNE
Thor Agena Rocket 3.6 00:06:59 10° NNE 00:12:17 83° WNW 00:15:34 24° SSW
USA 306 2.8 00:11:52 28° SW 00:13:57 67° SSE 00:18:06 10° ENE
Cosmos 2084 Rocket 3.9 00:12:47 27° S 00:14:13 39° SE 00:17:48 10° ENE
Cosmos 2369 Rocket 3.6 00:09:39 10° NNW 00:14:54 39° NE 00:20:08 10° ESE
NPP 4.2 00:09:50 10° NNE 00:15:06 51° E 00:19:06 17° S
USA 307 2.9 00:15:20 28° SW 00:17:25 63° SSE 00:21:34 10° ENE
SL-16 R/B 2.9 00:16:08 19° S 00:19:56 45° ESE 00:25:19 10° NE
CZ-4 R/B 3.9 00:17:47 10° NNE 00:22:27 68° ESE 00:25:30 21° S
ATLAS 5 CENTAUR R/B 3.8 00:14:16 10° NW 00:22:42 26° W 00:24:39 20° SW
Cosmos 1455 Rocket 3.2 00:19:15 10° NNW 00:23:38 58° W 00:26:09 24° SSW
ERBS 2.0 00:22:52 38° SSW 00:23:49 65° SE 00:26:52 10° ENE
USA 215 4.0 00:17:32 10° ENE 00:23:52 54° NNW 00:30:13 10° W
CZ-4C R/B 4.0 00:18:14 10° WNW 00:24:10 26° WSW 00:27:53 19° SSW
Cosmos 1980 3.9 00:20:38 21° SW 00:24:28 65° WNW 00:30:07 10° NNE
Cosmos 2333 Rocket 4.1 00:21:32 10° W 00:25:56 23° NW 00:30:23 10° NNE
COSMOS 2455 4.2 00:21:40 13° SSE 00:26:07 30° ESE 00:31:17 10° NE
Cosmos 332 Rocket 3.9 00:28:23 23° SW 00:31:21 70° WNW 00:36:10 10° NNE
Meteor 1-28 Rocket 4.0 00:29:00 10° SSE 00:32:37 51° ENE 00:36:15 10° N
NOSS 3 (A) 3.8 00:34:34 52° NE 00:34:34 52° NE 00:36:02 10° NE
NOSS 0 Rocket 4.5 00:29:23 16° SW 00:34:18 52° NW 00:40:25 10° NNE
Cosmos 1536 Rocket 4.5 00:30:54 13° SSE 00:34:34 43° E 00:38:45 10° NNE
Meteor 2-10 Rocket 4.4 00:32:42 10° NNW 00:37:57 39° W 00:41:17 19° SSW
Meteor 1-24 Rocket 3.7 00:34:53 19° SSW 00:39:01 88° W 00:44:30 10° NNE
Cosmos 1975 Rocket 3.5 00:39:39 22° SW 00:42:19 50° WNW 00:46:41 10° N
UNK 3.7 00:40:50 13° S 00:44:52 76° WSW 00:49:30 10° NNW
MOS 1 Rocket 3.0 00:44:05 13° S 00:47:57 81° WSW 00:52:18 10° NNW
USA 308 2.8 00:44:46 17° WSW 00:48:01 88° SE 00:52:13 10° ENE
Cosmos 2219 Rocket 4.2 00:45:14 10° W 00:49:18 20° NW 00:53:24 10° N
Cosmos 1025 Rocket 3.4 00:47:03 20° SW 00:49:47 51° WNW 00:54:00 10° N
Cosmos 1455 2.0 00:46:07 10° NNW 00:49:49 71° W 00:52:38 16° S
YAOGAN 11 4.1 00:46:10 13° S 00:50:06 72° WSW 00:54:38 10° NNW
Cosmos 1269 Rocket 4.4 00:45:54 10° NW 00:50:55 44° WSW 00:55:07 14° S
Cosmos 1271 Rocket 2.9 00:49:30 10° N 00:53:19 71° ENE 00:57:10 10° SSE
CZ-2D R/B 2.3 00:52:51 10° N 00:58:13 66° WNW 01:02:28 16° SSW
Meteor 2-5 Rocket 4.1 00:55:38 17° SSW 01:00:02 56° WNW 01:05:37 10° N
Lacrosse 5 2.0 00:58:31 17° SW 01:02:24 65° SE 01:07:28 10° ENE
Cosmos 2154 Rocket 4.0 00:57:30 10° NNW 01:03:52 79° W 01:10:11 10° S
Cosmos 1544 Rocket 4.3 01:05:49 10° NNW 01:09:55 37° W 01:13:09 15° SSW
Cosmos 407 Rocket 4.4 01:05:13 10° NNW 01:10:28 53° ENE 01:15:37 10° SE
USA 305 3.1 01:07:21 10° WSW 01:11:31 69° NNW 01:15:42 10° ENE
BREEZE-M DEB (TANK) 3.8 01:03:15 10° W 01:14:37 82° S 01:18:05 10° E
Cosmos 1943 4.5 01:10:02 10° S 01:15:07 35° ESE 01:20:13 10° NE
Cosmos 2237 Rocket 3.4 01:11:38 10° WSW 01:16:47 34° NW 01:21:58 10° NNE
AQUA 4.0 01:12:53 10° N 01:17:36 62° WNW 01:21:49 13° SSW
SL-16 R/B 3.1 01:14:42 11° SSW 01:20:23 40° W 01:26:14 10° NNW
SAR-Lupe-2 4.0 01:17:46 10° N 01:21:15 48° WNW 01:24:09 14° SW
Helios 1A 3.2 01:17:12 10° S 01:21:19 53° W 01:25:30 10° NNW
Cosmos 1140 Rocket 4.0 01:16:25 10° NNW 01:21:40 66° ENE 01:26:53 10° SE
Genesis I 3.9 01:19:21 10° NW 01:23:25 61° NE 01:27:23 10° SE
Lacrosse 5 rocket 1.4 01:21:54 14° SW 01:25:07 61° SE 01:29:12 10° ENE
Resurs 1-4 Rocket 2.9 01:22:24 10° N 01:27:15 38° WNW 01:31:56 11° SW
Cosmos 1943 Rocket 3.1 01:28:43 10° NW 01:33:30 29° WSW 01:38:16 10° SSW
Cosmos 2297 4.3 01:28:23 10° NW 01:33:36 36° WSW 01:38:47 10° S
Cosmos 2263 4.2 01:28:18 10° NNW 01:34:00 85° WSW 01:39:43 10° SSE
Cosmos 1726 Rocket 3.8 01:30:34 10° N 01:35:01 73° ENE 01:39:24 10° SSE
Cosmos 1703 3.4 01:35:59 10° SSW 01:39:53 63° WNW 01:43:48 10° N
ADEOS II 2.5 01:38:13 10° N 01:43:16 49° WNW 01:48:20 10° SW
IDEFIX/ARIANE 42P 2.9 01:39:04 10° N 01:44:14 57° WNW 01:49:23 10° SW
ARIANE 5 R/B 4.2 01:42:00 10° NNE 01:46:31 31° E 01:50:57 10° SSE
MOS 1-B Rocket 3.9 01:43:02 10° SSE 01:48:38 88° WSW 01:54:31 10° NNW
Cosmos 2218 Rocket 4.2 01:42:42 10° N 01:48:58 80° E 01:55:17 10° SSE
CBERS-1 4.3 01:44:28 10° NNE 01:49:37 70° ESE 01:54:42 10° S
Cosmos 292 Rocket 4.0 01:48:29 10° SW 01:53:14 60° WNW 01:57:59 10° NNE
USA 306 3.5 01:49:33 10° W 01:53:40 54° N 01:57:47 10° ENE
Cosmos 2084 Rocket 4.4 01:50:10 10° W 01:53:40 33° NW 01:57:11 10° NNE
USA 307 3.5 01:53:00 10° W 01:57:08 56° N 02:01:16 10° ENE
Meteor 1-21 Rocket 4.3 01:52:54 10° SSW 01:58:32 73° WNW 02:04:07 10° N
Cosmos 2369 Rocket 2.5 01:53:44 10° NW 01:59:00 44° WSW 02:04:15 10° S
ERBS 3.7 01:56:36 10° W 01:59:22 30° NNW 02:02:09 10° NE
IRS-1D 3.8 01:55:57 10° N 02:01:16 66° WNW 02:06:29 10° SSW
Gblst 52 Del rocket 4.1 01:55:43 10° WNW 02:01:25 79° SSW 02:06:54 10° ESE
